CDT,Max TemperatureF,Mean TemperatureF,Min TemperatureF,Max Dew PointF,MeanDew PointF,Min DewpointF,Max Humidity, Mean Humidity, Min Humidity, Max Sea Level PressureIn, Mean Sea Level PressureIn, Min Sea Level PressureIn, Max VisibilityMiles, Mean VisibilityMiles, Min VisibilityMiles, Max Wind SpeedMPH, Mean Wind SpeedMPH, Max Gust SpeedMPH,PrecipitationIn, CloudCover, Events, WindDirDegrees
2013-8-1,86,76,66,68,66,64,100,74,48,30.15,30.07,30.00,10,8,3,9,3,30,0.00,2,,78
2013-8-2,85,77,68,74,70,64,90,80,69,30.01,29.95,29.90,10,10,8,16,8,21,0.00,0,,149
2013-8-3,86,76,66,75,70,64,100,83,65,30.15,30.05,29.89,10,6,1,21,6,30,2.03,5,Rain-Thunderstorm,94
2013-8-4,78,74,70,72,70,69,100,88,76,30.18,30.12,30.05,10,8,0,18,7,31,0.62,6,Fog-Rain-Thunderstorm,120
2013-8-5,88,80,71,77,73,70,93,77,61,30.10,29.97,29.86,10,8,2,15,7,20,0.06,5,Rain,137
2013-8-6,88,80,71,77,72,66,94,81,68,30.01,29.90,29.83,10,10,9,16,7,23,T,3,Rain,131
2013-8-7,87,79,70,77,71,66,91,77,63,30.04,29.93,29.81,10,10,7,18,6,28,0.06,4,Rain-Thunderstorm,85
2013-8-8,86,77,68,73,69,65,93,79,65,30.04,29.95,29.89,10,7,0,22,6,30,3.09,6,Fog-Rain-Thunderstorm,60
2013-8-9,84,77,70,73,70,69,100,83,65,30.05,30.00,29.93,10,9,4,15,4,18,0.19,5,Rain,128
2013-8-10,78,74,69,72,70,68,100,91,82,30.16,30.10,30.03,10,7,0,9,5,13,0.67,7,Fog-Rain-Thunderstorm,37
2013-8-11,83,77,70,74,71,69,100,85,69,30.15,30.09,30.03,10,7,2,9,5,13,0.00,6,,120
2013-8-12,87,78,69,75,71,68,100,85,70,30.10,30.04,29.96,10,4,0,21,4,30,0.73,4,Fog-Rain-Thunderstorm,196
2013-8-13,79,73,67,71,68,63,100,82,64,30.09,30.03,29.98,10,10,7,10,3,13,0.00,4,,31
2013-8-14,77,68,58,63,58,55,93,72,50,30.19,30.12,30.06,10,10,8,12,4,18,0.00,3,,75
2013-8-15,75,64,52,57,54,52,100,75,49,30.15,30.11,30.05,10,9,2,9,2,20,0.00,1,,78
2013-8-16,75,65,55,59,56,54,93,72,50,30.14,30.10,30.06,10,9,4,10,3,22,0.00,3,,20
2013-8-17,80,68,56,62,59,55,100,77,54,30.18,30.12,30.06,10,9,5,12,4,16,0.00,2,,24
2013-8-18,81,70,59,64,62,58,100,76,51,30.19,30.13,30.07,10,5,0,10,2,15,0.00,3,Fog,105
2013-8-19,83,72,60,65,62,59,100,74,47,30.16,30.10,30.03,10,7,0,13,3,26,0.00,1,Fog,133
2013-8-20,85,73,61,67,63,60,100,72,44,30.11,30.08,30.04,10,9,3,9,4,17,0.00,0,,131
2013-8-21,88,76,63,68,65,62,100,73,46,30.13,30.09,30.06,10,9,6,9,4,14,0.00,1,,147
2013-8-22,90,78,65,70,66,62,100,72,43,30.13,30.08,30.03,10,9,6,9,2,20,0.00,0,,100
2013-8-23,90,77,64,71,68,61,100,69,38,30.10,30.06,30.02,10,9,3,9,3,26,0.00,0,,113
2013-8-24,88,78,68,72,69,66,100,75,50,30.19,30.13,30.07,10,8,2,10,4,28,0.00,0,,113
2013-8-25,90,79,68,72,69,66,100,74,47,30.27,30.20,30.15,10,6,1,12,4,15,0.00,0,,129
2013-8-26,89,79,69,71,69,66,100,74,47,30.22,30.17,30.11,10,9,3,10,5,31,0.00,0,,169
2013-8-27,89,78,66,69,65,59,100,70,39,30.13,30.09,30.04,10,9,5,12,3,30,0.00,1,,166
2013-8-28,92,79,65,71,67,64,93,70,47,30.09,30.05,30.02,10,10,8,9,2,31,0.00,1,,191
2013-8-29,93,80,67,73,70,67,97,73,49,30.08,30.04,29.99,10,10,8,21,2,30,0.00,1,,235
2013-8-30,94,83,71,74,71,68,94,69,44,30.01,29.96,29.89,10,10,10,12,2,15,0.00,1,Thunderstorm,228
2013-8-31,95,83,71,72,70,67,93,67,41,29.91,29.87,29.82,10,10,7,26,3,31,0.00,0,,202